Location: Tel Aviv
(32.0670°N, 34.7670°E)
Time: 10:30:00
(UTC+03:00)

Explorer 11/Cluster Stage 4 - Pass Details

Date: 19 September 2024
Orbit: 464 x 1208 km, 28.8° (Epoch: 06 October)

Event Time Altitude Azimuth Distance (km) Brightness Sun altitude
Rises 10:47:07 0° 272° (W) 3,856 9.8 50.1°
Reaches altitude 10° 10:50:06 10° 263° (W) 2,985 9.4 50.5°
Maximum altitude 10:56:35 32° 204° (SSW) 1,928 9.2 51.5°
Drops below altitude 10° 11:03:23 10° 145° (SE) 3,135 10.5 52.4°
Sets 11:06:36 0° 136° (SE) 4,075 10.8 52.8°
